Content
SEND FEEDBACK

Daily
Averages
Monthly
Summary
United States of America

LAKE PARSONS, KANSAS


Home > North America > United States > Kansas
Elevation: 980 feet     Latitude: 37 28N     Longitude: 095 21W

WEATHER
 
SELECT A DAY
Number of Records: 187,601;   Date Range: 7/1/96 - 10/24/14
 
SHARE

PRINT THIS DATA

[ ← Previous Day ]
WEATHER ALMANAC - FEBRUARY 18, 2013
[ Next Day → ]
[ °C ]   °F
Weather ElementAverageHighLow
Temperature48.5 °F60.1 °F (10:52 am)28.9 °F (9:52 pm)
Dewpoint34.2 °F46.9 °F (9:52 am)19.9 °F (11:52 pm)
Humidity58.8 %75 % (9:52 pm)41 % (11:52 am)
Barometer29.77 in30.17 in (11:52 pm)29.57 in (8:52 am)
Wind Speed16.2 mph27.6 mph (12:52 pm)
Wind Gust41.4 mph (1:52 pm)
Weather ElementAverage
Visibility10 mi
Wind DirectionWSW (248.6 °)

Weather ElementTotal
Precipitation---
Heating Degree Days20.5 (Base 65)
Averaged from 22 records on February 18, 2013
WEATHER CONDITIONS BREAKOUT
WIND DIRECTION BREAKOUT
WEATHER BY HOUR - FEBRUARY 18, 2013
[ °C ]   °F
Local TimeTemperatureDewpointHumidityBarometerVisibilityWind DirectionWind SpeedGust SpeedPrecipitationEventsConditions
1:52 AM54.0 °F33.1 °F45 %29.67 in10.0 miSouth (180°)12.7 mph25.3 mphClear
2:52 AM54.0 °F34.0 °F47 %29.64 in10.0 miSouth (180°)13.8 mph25.3 mphClear
3:52 AM53.1 °F37.0 °F55 %29.62 in10.0 miSouth (180°)18.4 mph25.3 mphClear
4:52 AM53.1 °F41.0 °F64 %29.61 in10.0 miSouth (180°)17.3 mph26.5 mphClear
5:52 AM53.1 °F42.1 °F66 %29.60 in10.0 miSouth (180°)18.4 mph33.4 mphOvercast
6:52 AM52.0 °F43.0 °F71 %29.58 in10.0 miSouth (180°)15.0 mph26.5 mphScattered Clouds
8:05 AM55.4 °F44.6 °F67 %29.58 in10.0 miSouth (190°)17.3 mph31.1 mphOvercast
8:52 AM55.9 °F46.0 °F69 %29.57 in10.0 miSouth (190°)21.9 mph33.4 mphOvercast
9:52 AM57.9 °F46.9 °F67 %29.57 in10.0 miSouth (190°)19.6 mph33.4 mphOvercast
10:52 AM60.1 °F45.0 °F57 %29.57 in10.0 miSW (220°)18.4 mph34.5 mphOvercast
11:52 AM60.1 °F36.0 °F41 %29.60 in10.0 miWSW (250°)24.2 mph34.5 mphScattered Clouds
12:52 PM55.9 °F35.1 °F45 %29.65 in10.0 miWNW (300°)27.6 mph39.1 mphClear
1:52 PM51.1 °F33.1 °F50 %29.71 in10.0 miNNW (330°)25.3 mph41.4 mphOvercast
2:52 PM53.1 °F32.0 °F45 %29.75 in10.0 miNorth (350°)24.2 mph35.7 mphPartly Cloudy
3:52 PM50.0 °F30.9 °F48 %29.81 in10.0 miNW (320°)24.2 mph35.7 mphScattered Clouds
4:52 PM46.0 °F30.9 °F56 %29.88 in10.0 miNW (320°)24.2 mph34.5 mphMostly Cloudy
5:52 PM43.0 °F28.0 °F56 %29.93 in10.0 miNNW (330°)12.7 mph25.3 mphPartly Cloudy
7:52 PM37.0 °F26.1 °F65 %30.04 in10.0 miNorth (350°)6.9 mphClear
8:52 PM33.1 °F23.0 °F66 %30.07 in10.0 miNNW (340°)4.6 mphClear
9:52 PM28.9 °F21.9 °F75 %30.12 in10.0 miCalmClear
10:52 PM30.9 °F21.9 °F69 %30.15 in10.0 miNorth (350°)5.8 mphClear
11:52 PM28.9 °F19.9 °F69 %30.17 in10.0 miNorth (360°)3.5 mphClear
Hourly data recorded from KPPF, located miles away from Lake Parsons, Kansas







STORIES FROM OUR PARTNERS